Regional Weather Roundup
Issued by NWS

Home | Current Version | Previous Version | Text Only | Print | Product List | Glossary On
Versions: 1 2 3 4 5 6 7 8 9 10 11 12 13 14 15 16 17 18 19 20 21 22 23 24 25 26 27 28 29 30 31 32 33 34 35 36 37 38 39 40 41 42 43 44 45 46 47 48 49 50
000
ASUS43 KMPX 231401
RWRMN
WEATHER ROUNDUP FOR MINNESOTA
NATIONAL WEATHER SERVICE TWIN CITIES/CHANHASSEN MN
900 AM CDT TUE AUG 23 2016


NOTE: "FAIR" INDICATES FEW OR NO CLOUDS BELOW 12,000 FEET WITH NO
SIGNIFICANT WEATHER AND/OR OBSTRUCTIONS TO VISIBILITY. N/A MEANS
CURRENT SKY AND/OR WEATHER CONDITIONS ARE NOT AVAILABLE.

MNZ060>063-068>070-231500-
   Twin Cities Metro

CITY           SKY/WX    TMP DP  RH WIND       PRES   REMARKS
TWIN CITIES    MOSUNNY   71  61  70 S12       29.95S
ST PAUL        MOSUNNY   71  62  73 SE10      29.95F
CRYSTAL        MOSUNNY   74  59  59 S14       29.92S
BLAINE         MOSUNNY   72  63  73 SE9       29.94S
LAKEVILLE      MOSUNNY   68  61  77 S9G17     29.96F
EDEN PRAIRIE   MOSUNNY   73  61  65 S15       29.93F
LAKEVILLE      MOSUNNY   68  61  77 S9G17     29.96F
SOUTH ST PAUL  MOSUNNY   69  60  72 S8G16     29.96S
LAKE ELMO      FAIR      70  63  78 S13G20    29.97F
$$
MNZ001>005-007-008-013>017-022>024-027-028-231500-
   Northwest Minnesota

CITY           SKY/WX    TMP DP  RH WIND       PRES   REMARKS
BEMIDJI        SUNNY     70  62  75 S9G20     29.80R
HALLOCK        CLOUDY    70  64  83 SE9       29.64F
ROSEAU         SUNNY     73  66  78 S14G21    29.71S
WARROAD        CLOUDY    72  66  83 S9        29.73R
THIEF RVR FALL CLOUDY    70  63  78 NW8       29.69F
CROOKSTON      CLOUDY    73  61  64 S25G39    29.65R
FOSSTON        CLOUDY    70  61  73 S14       29.75S
DETROIT LAKES  MOSUNNY   72  61  68 S10       29.79S
MOORHEAD       MOSUNNY   72  63  73 S16       29.72F
PARK RAPIDS    SUNNY     70  60  70 S13       29.81R
MAHNOMEN       FAIR      70  62  76 S8G17     29.75S
$$
MNZ006-009>011-018-025>026-231500-
   North Central Minnesota

CITY           SKY/WX    TMP DP  RH WIND       PRES   REMARKS
BAUDETTE       CLOUDY    69  64  84 S10       29.75S
FLAG ISLAND    CLOUDY    70  64  83 SE6       29.73R HAZE
INTL FALLS     MOSUNNY   69  63  81 VRB7      29.80S
WASKISH        CLOUDY    70  63  78 S9        29.77R
BIG FORK       CLOUDY    70  63  78 S9        29.82S
LONGVILLE      SUNNY     70  63  78 S8        29.84R
GRAND RAPIDS   CLOUDY    69  62  78 S12       29.86F
CRANE LAKE     CLOUDY    66  63  88 S6        29.85F
ORR            CLOUDY    66  59  77 S13G18    29.81F
COOK           CLOUDY    68  61  77 S9        29.86F
WALKER         FAIR      68  60  75 S9G17     29.82R
$$
MNZ012-019>021-037-231500-
   Northeast Minnesota

CITY           SKY/WX    TMP DP  RH WIND       PRES   REMARKS
DULUTH         MOSUNNY   71  62  73 SW15      29.91S
ELY            CLOUDY    68  61  77 SW9       29.89F
HIBBING        CLOUDY    66  61  84 S7        29.87F
EVELETH        CLOUDY    67  60  79 S6        29.89F
DULUTH HARBOR  SUNNY     73  64  73 SW13      29.90S
TWO HARBORS    CLOUDY    72  64  78 S5        29.90S
SILVER BAY     CLOUDY    70  63  78 CALM      29.91S
GRAND MARAIS     N/A     69  65  86 CALM      29.92S
G MARAIS ARPRT CLOUDY    66  57  72 S8        29.97S
$$
MNZ029>031-032-039>041-046>048-054>057-064-231500-
   West Central Minnesota

CITY           SKY/WX    TMP DP  RH WIND       PRES   REMARKS
FERGUS FALLS     N/A     72  61  68 S17G23    29.78R
WHEATON        MOSUNNY   73  64  73 S12G18    29.76F
MORRIS         MOSUNNY   72  63  73 S12G17    29.79F
ALEXANDRIA     MOSUNNY   71  61  70 S14G23    29.84F
ELBOW LAKE     FAIR      69  62  76 S15G25    29.79S
WADENA         MOSUNNY   70  61  73 S12G20    29.81S
GLENWOOD       MOSUNNY   70  63  78 S15G22    29.85S
APPLETON       MOSUNNY   72  61  68 S9G16     29.80F
BENSON         MOSUNNY   72  61  68 SW14      29.82F
ORTONVILLE     MOSUNNY   72  61  68 S6        29.79S
MADISON        SUNNY     72  61  68 S13       29.81F
WILLMAR        FAIR      72  63  73 S10       29.87F
$$
MNZ033>034-036-042>043-049>051-058-059-231500-
   Central Minnesota

CITY           SKY/WX    TMP DP  RH WIND       PRES   REMARKS
ST CLOUD       MOSUNNY   70  63  78 S13       29.88F
SAUK CENTRE    FAIR      71  63  74 S10G16    29.86S
PAYNESVILLE    MOSUNNY   70  61  74 S14G20    29.88S
AITKIN         MOSUNNY   73  61  64 S14G23    29.86S
PINE RIVER     SUNNY     70  63  78 S9        29.87S
BRAINERD       MOSUNNY   69  61  75 S14       29.86S
LONG PRAIRIE   FAIR      68  61  77 SE10G18   29.85F
LITTLE FALLS   MOSUNNY   70  59  68 S12G18    29.87S
LITCHFIELD     MOSUNNY   72  64  78 S3        29.90S
BUFFALO        MOSUNNY   71  60  69 S8G16     29.92F
MAPLE LAKE     MOSUNNY   71  63  76 S6G17     29.91F
HUTCHINSON     CLOUDY    69  64  83 SE7       29.92S
$$
MNZ037-044-045-052-053-231500-
   East Central Minnesota

CITY           SKY/WX    TMP DP  RH WIND       PRES   REMARKS
PRINCETON      SUNNY     73  63  68 S13       29.90F
MORA           SUNNY     70  63  78 S8        29.92S
CAMBRIDGE      SUNNY     73  61  64 S14G23    29.90S
RUSH CITY      SUNNY     70  62  75 S12G21    29.92F
MOOSE LAKE     SUNNY     70  61  73 S8        29.89S
HINCKLEY       FAIR      70  63  78 S9        29.92S
CLOQUET        SUNNY     70  61  73 S9G17     29.90F
MCGREGOR       SUNNY     70  61  73 S13G20    29.89S
$$
MNZ071>073-080-081-089-090-097-098-231500-
   Southwest Minnesota

CITY           SKY/WX    TMP DP  RH WIND       PRES   REMARKS
MONTEVIDEO     MOSUNNY   73  63  68 SW14G21   29.85S
GRANITE FALLS  MOSUNNY   72  65  78 S13       29.87S
CANBY          SUNNY     73  62  68 S7        29.83S
MARSHALL       SUNNY     72  63  73 S17       29.85F
REDWOOD FALLS  MOSUNNY   72  61  68 S17       29.88S
OLIVIA         CLOUDY    72  63  73 S13G20    29.87F
PIPESTONE      SUNNY     66  63  88 S14       29.88S
WINDOM         MOSUNNY   70  61  73 S15G22    29.92S
WORTHINGTON    PTSUNNY   67  62  84 S13G20    29.92F
JACKSON        PTSUNNY   70  59  68 S15G21    29.95S
TRACY          SUNNY     72  64  75 S15G22    29.88R
$$
MNZ065>067-074>077-082>085-091>093-231500-
   South Central Minnesota

CITY           SKY/WX    TMP DP  RH WIND       PRES   REMARKS
MANKATO        SUNNY     70  61  73 S13G20    29.95S
NEW ULM          N/A     70  63  78 S13       29.91S
ST JAMES       SUNNY     64  57  77 S14G21    29.94S
GLENCOE        MOSUNNY   70  64  83 S6        29.92S
FARIBAULT      MOSUNNY   68  61  77 S10G17    29.98S
OWATONNA       MOSUNNY   68  61  77 S13       29.99S
WASECA         SUNNY     72  63  73 S14G22    29.99S
ALBERT LEA     MOSUNNY   70  61  73 S9G16     30.01S
$$
MNZ078>079-086>088-094>096-231500-
   Southeast Minnesota

CITY           SKY/WX    TMP DP  RH WIND       PRES   REMARKS
ROCHESTER      SUNNY     67  61  81 S13G21    30.04S
RED WING       MOSUNNY   72  61  68 SE5       29.99S
DODGE CENTER   CLOUDY    70  61  73 S14G20    30.02S
WINONA         MOSUNNY   72  61  68 CALM      30.05S
AUSTIN         MOSUNNY   66  61  82 S8        30.03S
PRESTON        SUNNY     67  59  75 S13       30.07S
$$
ABBREVIATIONS USED IN REMARKS
   TC - TEMPERATURES IN CELSIUS
  WCI - WIND CHILL INDEX
   HX - HEAT INDEX
  VSB - VISIBILITY
$$




USA.gov is the U.S. government's official web portal to all federal, state and local government web resources and services.